Home   Weather   Fukuoka   Past weeks

Flag for Japan Past Weather in Fukuoka, Japan — Yesterday and Last 2 Weeks

Now
84 °F

Clear.


Feels Like: 94 °F
Forecast: 81 / 92 °F
Wind: 8 mph from South

Location: Fukuoka Airport

Current Time: Jul 22, 2017 at 1:58:41 am

Latest Report: Jul 22, 2017 at 1:30 am


Visibility: N/A

Pressure: 29.83 "Hg

Humidity: 79%

Dew Point: 77 °F

Location of FukuokaLocation

Past Weather in Fukuoka — Graph

°F

Fukuoka Temperature Yesterday

Maximum temperature yesterday: 95 °F (at 1:00 pm)
Minimum temperature yesterday: 79 °F (at 5:30 am)
Average temperature yesterday: 87 °F

High & Low Weather Summary for the Past Weeks

 TemperatureHumidityPressure
High95 °F (Jul 21, 1:00 pm)94% (Jul 7, 12:00 am)29.95 "Hg (Jul 7, 12:00 am)
Low75 °F (Jul 7, 12:00 am)46% (Jul 14, 2:30 pm)29.68 "Hg (Jul 19, 2:30 pm)
Average84 °F72%29.82 "Hg
* Reported Jul 7 12:00 am — Jul 22 12:30 am, Fukuoka. Weather by CustomWeather, © 2017

Note: Actual official high and low records may vary slightly from our data, if they occured in-between our weather recording intervals... More about our weather records

Advertising

Fukuoka Weather History for the Previous 24 Hours

Scroll right to see more
 ConditionsComfort  
Time TempWeatherWind HumidityBarometerVisibility
12:30 am
Sat, Jul 22
84 °FClear.3 mph79%29.83 "HgN/A
12:00 am84 °FClear.5 mph79%29.86 "HgN/A
11:00 pm
Fri, Jul 21
86 °FClear.3 mph79%29.86 "HgN/A
10:30 pm86 °FPassing clouds.5 mph75%29.83 "HgN/A
10:00 pm86 °FPartly cloudy.5 mph79%29.83 "HgN/A
9:30 pm86 °FPassing clouds.5 mph75%29.83 "HgN/A
9:00 pm86 °FClear.5 mph79%29.83 "Hg10 mi
8:30 pm88 °FPassing clouds.5 mph75%29.83 "HgN/A
8:00 pm86 °FPassing clouds.6 mph79%29.83 "HgN/A
7:30 pm86 °FPassing clouds.8 mph79%29.80 "HgN/A
7:00 pm88 °FScattered clouds.8 mph75%29.80 "HgN/A
6:30 pm90 °FScattered clouds.8 mph71%29.80 "HgN/A
6:00 pm90 °FScattered clouds.10 mph67%29.80 "HgN/A
5:30 pm90 °FScattered clouds.12 mph71%29.80 "HgN/A
5:00 pm90 °FPassing clouds.10 mph67%29.77 "HgN/A
4:30 pm91 °FPassing clouds.12 mph67%29.80 "HgN/A
4:00 pm91 °FPassing clouds.13 mph59%29.80 "HgN/A
3:30 pm91 °FPassing clouds.15 mph63%29.80 "HgN/A
3:00 pm91 °FPassing clouds.14 mph63%29.80 "HgN/A
2:30 pm93 °FPassing clouds.13 mph59%29.80 "HgN/A
2:00 pm93 °FPassing clouds.14 mph59%29.80 "HgN/A
1:30 pm95 °FPassing clouds.12 mph56%29.80 "HgN/A
1:00 pm95 °FPassing clouds.7 mph56%29.80 "HgN/A
12:30 pm93 °FPassing clouds.7 mph53%29.80 "HgN/A
12:00 pm93 °FScattered clouds.3 mph56%29.80 "HgN/A
11:30 am91 °FScattered clouds.5 mph59%29.83 "HgN/A
11:00 am91 °FPassing clouds.7 mph59%29.83 "HgN/A
10:30 am91 °FScattered clouds.5 mph59%29.83 "HgN/A
10:00 am91 °FPartly sunny.5 mph59%29.83 "HgN/A
9:00 am88 °FPassing clouds.7 mph70%29.83 "HgN/A
8:30 am86 °FPassing clouds.10 mph75%29.83 "HgN/A
8:00 am84 °FSunny.7 mph79%29.83 "Hg10 mi
7:30 am84 °FPassing clouds.8 mph79%29.83 "Hg6 mi
7:00 am82 °FClear.7 mph84%29.80 "Hg6 mi
6:30 am81 °FPassing clouds.7 mph89%29.80 "HgN/A
6:00 am81 °FPassing clouds.5 mph84%29.80 "HgN/A
5:30 am79 °FWarm.2 mph89%29.80 "HgN/A
5:00 am81 °FPassing clouds.5 mph84%29.80 "HgN/A
4:30 am81 °FPassing clouds.5 mph84%29.80 "HgN/A
4:00 am81 °FPassing clouds.3 mph84%29.80 "HgN/A
3:00 am81 °FWarm.3 mph84%29.77 "HgN/A
2:30 am81 °FWarm.5 mph84%29.80 "HgN/A
2:00 am81 °FWarm.6 mph84%29.80 "HgN/A
1:30 am81 °FWarm.6 mph79%29.80 "HgN/A
1:00 am81 °FWarm.5 mph79%29.80 "HgN/A
Weather by CustomWeather, © 2017

See weather overviewHow to use our weather pages